TimeEST,TemperatureF,Dew PointF,Humidity,Sea Level PressureIn,VisibilityMPH,Wind Direction,Wind SpeedMPH,Gust SpeedMPH,PrecipitationIn,Events,Conditions,WindDirDegrees,DateUTC
12:53 AM,39.9,35.1,83,29.93,10.0,SSW,5.8,-,N/A,,Clear,200,2013-02-24 05:53:00
1:53 AM,41.0,34.0,76,29.95,10.0,WNW,3.5,-,N/A,,Clear,290,2013-02-24 06:53:00
2:53 AM,39.9,34.0,79,29.96,10.0,Calm,Calm,-,N/A,,Clear,0,2013-02-24 07:53:00
3:53 AM,39.0,33.1,79,29.96,10.0,Calm,Calm,-,N/A,,Clear,0,2013-02-24 08:53:00
4:53 AM,34.0,30.9,89,29.97,10.0,Calm,Calm,-,N/A,,Clear,0,2013-02-24 09:53:00
5:53 AM,35.1,28.9,78,30.01,10.0,Calm,Calm,-,N/A,,Clear,0,2013-02-24 10:53:00
6:53 AM,34.0,30.0,85,30.03,10.0,Calm,Calm,-,N/A,,Clear,0,2013-02-24 11:53:00
7:53 AM,33.1,30.0,89,30.05,7.0,Calm,Calm,-,N/A,,Partly Cloudy,0,2013-02-24 12:53:00
8:53 AM,37.9,30.9,76,30.07,10.0,Calm,Calm,-,N/A,,Clear,0,2013-02-24 13:53:00
9:53 AM,42.1,27.0,55,30.08,10.0,ENE,5.8,-,N/A,,Clear,60,2013-02-24 14:53:00
10:53 AM,45.0,28.0,52,30.08,10.0,North,5.8,-,N/A,,Clear,360,2013-02-24 15:53:00
11:53 AM,48.9,27.0,43,30.08,10.0,Calm,Calm,-,N/A,,Clear,0,2013-02-24 16:53:00
12:53 PM,51.1,28.0,41,30.06,10.0,Variable,3.5,-,N/A,,Clear,0,2013-02-24 17:53:00
1:53 PM,52.0,25.0,35,30.05,10.0,Variable,3.5,-,N/A,,Clear,0,2013-02-24 18:53:00
2:53 PM,53.1,25.0,34,30.03,10.0,East,6.9,-,N/A,,Clear,90,2013-02-24 19:53:00
3:53 PM,55.0,23.0,29,30.02,10.0,NNW,5.8,-,N/A,,Clear,330,2013-02-24 20:53:00
4:53 PM,55.0,21.9,28,30.02,10.0,Calm,Calm,-,N/A,,Clear,0,2013-02-24 21:53:00
5:53 PM,53.1,23.0,31,30.03,10.0,ENE,5.8,-,N/A,,Clear,70,2013-02-24 22:53:00
6:53 PM,48.0,24.1,39,30.06,10.0,NE,8.1,-,N/A,,Clear,40,2013-02-24 23:53:00
7:53 PM,44.1,24.1,45,30.07,10.0,NE,8.1,-,N/A,,Clear,40,2013-02-25 00:53:00
8:53 PM,45.0,21.9,40,30.06,10.0,NNE,6.9,-,N/A,,Clear,30,2013-02-25 01:53:00
9:53 PM,42.1,21.9,45,30.07,10.0,ENE,3.5,-,N/A,,Clear,60,2013-02-25 02:53:00
10:53 PM,41.0,21.9,47,30.06,10.0,NE,4.6,-,N/A,,Clear,40,2013-02-25 03:53:00
11:53 PM,39.0,23.0,53,30.03,10.0,NE,3.5,-,N/A,,Clear,40,2013-02-25 04:53:00